EW8702 Weather Reports


Display with metric or nautical units.
time (UTC)temp
F
wind
direction
speed
MPH
gust
MPH
rain 1hr
in
rain 24hr
in
rain mn
in
humidity
%
barometer
mb
20210624151122 63 268 5.0 10.0 0.00 0.00 0.00 64 1019.5
20210624150122 64 281 2.0 6.0 0.00 0.00 0.00 63 1019.4
20210624145123 64 8 2.0 6.0 0.00 0.00 0.00 61 1019.3
20210624144123 64 334 3.0 9.0 0.00 0.00 0.00 60 1019.2
20210624143123 65 314 1.0 6.0 0.00 0.00 0.00 62 1019.2
20210624142123 66 291 2.0 8.0 0.00 0.00 0.00 55 1019.2
20210624141123 66 22 3.0 7.0 0.00 0.00 0.00 53 1019.0
20210624140123 66 42 2.0 9.0 0.00 0.00 0.00 52 1018.6
20210624135122 66 207 4.0 11.0 0.00 0.00 0.00 51 1018.5
20210624134123 66 225 8.0 20.0 0.00 0.00 0.00 52 1018.0
20210624133123 66 225 8.0 20.0 0.00 0.00 0.00 52 1017.8
20210624132123 67 211 10.0 24.0 0.00 0.00 0.00 51 1017.6
20210624131122 68 234 7.0 16.0 0.00 0.00 0.00 49 1017.5
20210624130122 70 225 7.0 18.0 0.00 0.00 0.00 43 1017.3
20210624125122 70 195 5.0 15.0 0.00 0.00 0.00 39 1017.3
20210624124122 69 33 1.0 4.0 0.00 0.00 0.00 40 1017.3
20210624123122 70 107 1.0 2.0 0.00 0.00 0.00 39 1017.2
20210624122122 70 301 1.0 4.0 0.00 0.00 0.00 36 1017.0
20210624121123 69 81 2.0 5.0 0.00 0.00 0.00 38 1016.8
20210624120123 66 42 1.0 4.0 0.00 0.00 0.00 45 1016.6
20210624115122 64 351 3.0 8.0 0.00 0.00 0.00 51 1016.5
20210624114123 65 202 0.0 3.0 0.00 0.00 0.00 55 1016.4
20210624113122 66 85 1.0 2.0 0.00 0.00 0.00 50 1016.2
20210624112123 65 104 2.0 3.0 0.00 0.00 0.00 51 1016.2
20210624111123 65 216 1.0 3.0 0.00 0.00 0.00 50 1016.2
20210624110122 65 128 1.0 2.0 0.00 0.00 0.00 48 1016.1
20210624105122 66 121 1.0 3.0 0.00 0.00 0.00 48 1016.2
20210624104122 66 130 0.0 1.0 0.00 0.00 0.00 47 1016.3
20210624103123 66 130 0.0 1.0 0.00 0.00 0.00 45 1016.1
20210624102123 66 190 0.0 2.0 0.00 0.00 0.00 46 1016.1
20210624101123 66 227 1.0 2.0 0.00 0.00 0.00 47 1016.0
20210624100123 67 276 1.0 3.0 0.00 0.00 0.00 44 1016.0
20210624095123 67 319 1.0 3.0 0.00 0.00 0.00 43 1015.8
20210624094123 67 149 1.0 4.0 0.00 0.00 0.00 44 1015.9
20210624093123 66 243 1.0 4.0 0.00 0.00 0.00 44 1015.8
20210624092123 67 166 1.0 3.0 0.00 0.00 0.00 42 1015.8
20210624091122 68 350 2.0 4.0 0.00 0.00 0.00 38 1015.8
20210624090123 68 338 1.0 2.0 0.00 0.00 0.00 40 1015.8
20210624085123 67 331 0.0 1.0 0.00 0.00 0.00 43 1015.8
20210624084123 67 260 1.0 3.0 0.00 0.00 0.00 43 1015.7
20210624083122 68 214 1.0 4.0 0.00 0.00 0.00 43 1015.7
20210624082122 69 343 1.0 3.0 0.00 0.00 0.00 36 1015.7
20210624081123 69 346 2.0 4.0 0.00 0.00 0.00 38 1015.7
20210624080123 68 295 2.0 6.0 0.00 0.00 0.00 39 1015.7
20210624075123 68 357 0.0 2.0 0.00 0.00 0.00 41 1015.6
20210624074123 68 94 0.0 1.0 0.00 0.00 0.00 40 1015.6
20210624073123 70 94 0.0 2.0 0.00 0.00 0.00 36 1015.6
20210624072123 70 94 0.0 1.0 0.00 0.00 0.00 37 1015.6
20210624071122 71 103 1.0 3.0 0.00 0.00 0.00 35 1015.7
20210624070122 73 251 1.0 3.0 0.00 0.00 0.00 32 1015.7
20210624065123 74 8 2.0 5.0 0.00 0.00 0.00 28 1015.5
20210624064123 74 356 4.0 8.0 0.00 0.00 0.00 29 1015.4
20210624063123 72 4 1.0 4.0 0.00 0.00 0.00 32 1015.6
20210624062122 72 337 4.0 9.0 0.00 0.00 0.00 33 1015.7
20210624061123 71 358 2.0 6.0 0.00 0.00 0.00 35 1015.6
20210624060123 70 341 1.0 4.0 0.00 0.00 0.00 37 1015.8
20210624055123 69 277 1.0 3.0 0.00 0.00 0.00 40 1015.5
20210624054123 70 27 0.0 1.0 0.00 0.00 0.00 38 1015.4
20210624053122 70 356 2.0 3.0 0.00 0.00 0.00 38 1015.1
20210624052123 70 224 1.0 3.0 0.00 0.00 0.00 44 1015.2
20210624051123 72 337 0.0 2.0 0.00 0.00 0.00 36 1015.1
20210624050123 71 347 2.0 3.0 0.00 0.00 0.00 35 1015.1
20210624045123 73 0 0.0 0.0 0.00 0.00 0.00 34 1015.2
20210624044123 73 22 0.0 2.0 0.00 0.00 0.00 35 1015.1
20210624043122 73 350 1.0 4.0 0.00 0.00 0.00 32 1014.9
20210624042122 72 330 1.0 3.0 0.00 0.00 0.00 34 1014.8
20210624041122 73 313 1.0 2.0 0.00 0.00 0.00 34 1014.7
20210624040123 74 289 2.0 6.0 0.00 0.00 0.00 34 1014.5
20210624035122 76 15 1.0 4.0 0.00 0.00 0.00 26 1014.3
20210624034122 75 2 1.0 3.0 0.00 0.00 0.00 35 1014.3
20210624033123 75 1 1.0 2.0 0.00 0.00 0.00 35 1014.3
20210624032123 75 117 0.0 1.0 0.00 0.00 0.00 36 1014.2
20210624031123 76 110 1.0 4.0 0.00 0.00 0.00 35 1014.1
20210624030123 77 332 1.0 2.0 0.00 0.00 0.00 34 1013.9
20210624025123 77 332 2.0 5.0 0.00 0.00 0.00 30 1013.7
20210624024123 77 338 1.0 3.0 0.00 0.00 0.00 35 1013.6
20210624023123 77 286 0.0 3.0 0.00 0.00 0.00 33 1013.5
20210624022122 79 291 1.0 3.0 0.00 0.00 0.00 32 1013.5
20210624021123 80 339 1.0 2.0 0.00 0.00 0.00 25 1013.5
20210624020123 81 306 1.0 2.0 0.00 0.00 0.00 29 1013.6
20210624015122 81 0 0.0 0.0 0.00 0.00 0.00 26 1013.7
20210624014123 82 277 0.0 2.0 0.00 0.00 0.00 22 1013.5
20210624013123 82 277 0.0 1.0 0.00 0.00 0.00 24 1013.5
20210624012122 83 277 1.0 2.0 0.00 0.00 0.00 20 1013.4
20210624011123 83 253 2.0 4.0 0.00 0.00 0.00 16 1013.4
20210624010122 83 276 3.0 6.0 0.00 0.00 0.00 21 1013.3
20210624005122 84 278 3.0 6.0 0.00 0.00 0.00 19 1013.2
20210624004122 84 278 2.0 6.0 0.00 0.00 0.00 17 1013.2
20210624003122 85 274 4.0 8.0 0.00 0.00 0.00 15 1013.2
20210624002123 86 265 3.0 7.0 0.00 0.00 0.00 14 1013.4
20210624001122 87 262 4.0 8.0 0.00 0.00 0.00 13 1013.4
20210624000122 87 237 3.0 8.0 0.00 0.00 0.00 15 1013.4
20210623235122 87 263 4.0 8.0 0.00 0.00 0.00 14 1013.4
20210623234123 87 260 4.0 8.0 0.00 0.00 0.00 17 1013.5
20210623233122 88 255 4.0 8.0 0.00 0.00 0.00 12 1013.5
20210623232122 88 244 4.0 7.0 0.00 0.00 0.00 13 1013.6
20210623231123 88 266 3.0 8.0 0.00 0.00 0.00 18 1013.7
20210623230123 88 265 3.0 10.0 0.00 0.00 0.00 14 1013.8
20210623225123 88 265 3.0 7.0 0.00 0.00 0.00 13 1013.9
20210623224122 88 236 3.0 6.0 0.00 0.00 0.00 14 1013.9
20210623223123 88 272 5.0 11.0 0.00 0.00 0.00 14 1014.0
20210623222123 88 264 4.0 12.0 0.00 0.00 0.00 14 1014.0
20210623221123 89 260 3.0 6.0 0.00 0.00 0.00 14 1014.1
20210623220123 88 263 3.0 9.0 0.00 0.00 0.00 19 1014.2
20210623215122 88 320 2.0 8.0 0.00 0.00 0.00 15 1014.2
20210623214122 88 282 2.0 8.0 0.00 0.00 0.00 16 1014.4
20210623213122 88 270 3.0 7.0 0.00 0.00 0.00 16 1014.4
20210623212122 87 281 2.0 7.0 0.00 0.00 0.00 15 1014.5
20210623211122 88 260 3.0 8.0 0.00 0.00 0.00 16 1014.6
20210623210123 88 252 4.0 10.0 0.00 0.00 0.00 17 1014.6
20210623205123 87 264 4.0 8.0 0.00 0.00 0.00 21 1014.7
20210623204123 86 211 1.0 6.0 0.00 0.00 0.00 14 1014.7
20210623203122 87 308 3.0 7.0 0.00 0.00 0.00 16 1014.8
20210623202123 86 213 2.0 6.0 0.00 0.00 0.00 18 1014.8
20210623201122 86 331 2.0 8.0 0.00 0.00 0.00 23 1014.9
20210623200122 85 266 2.0 6.0 0.00 0.00 0.00 17 1015.0
20210623195122 85 306 2.0 4.0 0.00 0.00 0.00 17 1015.1
20210623194122 85 31 2.0 6.0 0.00 0.00 0.00 19 1015.2
20210623193123 85 64 2.0 4.0 0.00 0.00 0.00 19 1015.3
20210623192122 86 118 1.0 4.0 0.00 0.00 0.00 21 1015.4
20210623191122 84 158 2.0 7.0 0.00 0.00 0.00 24 1015.5
20210623190122 84 101 2.0 5.0 0.00 0.00 0.00 20 1015.6
20210623185123 84 156 2.0 5.0 0.00 0.00 0.00 20 1015.7
20210623184122 83 101 2.0 5.0 0.00 0.00 0.00 23 1015.8
20210623183122 83 128 3.0 8.0 0.00 0.00 0.00 22 1015.8
20210623182122 82 152 3.0 7.0 0.00 0.00 0.00 23 1015.8
20210623181123 81 124 3.0 7.0 0.00 0.00 0.00 24 1015.9
20210623180123 80 114 2.0 6.0 0.00 0.00 0.00 25 1015.9
20210623175122 79 93 2.0 6.0 0.00 0.00 0.00 30 1015.9
20210623174122 80 151 2.0 6.0 0.00 0.00 0.00 27 1016.0
20210623173123 79 175 2.0 4.0 0.00 0.00 0.00 28 1015.9
20210623172123 79 254 1.0 3.0 0.00 0.00 0.00 29 1015.7
20210623171123 77 296 1.0 4.0 0.00 0.00 0.00 27 1015.9
20210623170123 75 299 1.0 4.0 0.00 0.00 0.00 26 1016.1
20210623165123 74 166 1.0 3.0 0.00 0.00 0.00 35 1016.0
20210623164123 72 4 1.0 3.0 0.00 0.00 0.00 31 1016.1
20210623163122 69 212 1.0 3.0 0.00 0.00 0.00 38 1016.1
20210623162122 68 216 2.0 4.0 0.00 0.00 0.00 50 1016.0
20210623161123 69 334 1.0 4.0 0.00 0.00 0.00 39 1016.0
20210623160122 66 338 2.0 5.0 0.00 0.00 0.00 42 1016.1
20210623155122 64 293 1.0 3.0 0.00 0.00 0.00 48 1016.3
20210623154122 64 218 1.0 3.0 0.00 0.00 0.00 51 1016.1
20210623153122 64 279 1.0 4.0 0.00 0.00 0.00 46 1016.0
20210623152123 64 289 2.0 6.0 0.00 0.00 0.00 43 1015.8